Погода в Ванимо

Папуа-Новая Гвинея     2°52′10″S   141°41′01″E
темп.,
°C
ветер,
м/с
пор.,
м/с
влажн.,
%
обл.,
%
осадки,
мм/ч
давл.,
гПа
погр.,
м
10 августа, ср
ср1001:00+27вюв3478100 4.6 1010204
04:00+27юв4478100 7.4 1009263
07:00+27ю3477100 2.9 1010197
10:00+25ююв5586100 6.1 1011259
13:00+26ю2278100 0.1 1009279
16:00+27ссв227588 0.1 1008262
19:00+28в237446 0.0 1009530
22:00+28вюв447384 0.0 1011803
11 августа, чт
чт1101:00+27вюв447884 0.7 1010412
04:00+27юв458395 2.2 1009325
07:00+26юв4581100 2.1 1011337
10:00+27юв447728 3.6 1012440
13:00+28в34723 0.1 1009533
16:00+28всв437113 0.1 1007466
19:00+28св447354 0.0 1009619
22:00+28всв347718 1.6 1011388
12 августа, пт
пт1201:00+28юв227592 1.3 1010311
04:00+27ю2278100 1.9 1009181
07:00+26юз328081 0.7 1010145
10:00+27ююз117516 2.1 1011175
13:00+28с12715 0.4 1009310
16:00+28св34745 1.4 1008519
19:00+28в44735 1.5 1009625
22:00+28в3373100 1.7 1011770
13 августа, сб
сб1301:00+28вюв227365 0.3 1010606
04:00+27ююв3377100 3.9 1009213
07:00+27ю227662 0.8 1011302
10:00+27ю227643 2.4 1012172
13:00+27в337593 1.8 1011436
16:00+26в7788100 6.8 1010554
19:00+25юв4486100 4.2 1011459
22:00+25юз3383100 5.2 1012294
14 августа, вс
вс1401:00+25зюз338197 0.0 1011300
04:00+25юз3381100 0.0 1010279
07:00+26юз227995 0.0 1011268
10:00+26ю117661 0.0 1012310
13:00+27ссв227412 0.0 1010242
16:00+28ссв337062 0.0 1007438
19:00+28ссв2369100 0.0 1009671
22:00+28всв2269100 0.0 1011731